Find P71-2

NORAD ID: 5560 Int'l Des: 1971-089 Owner: STP Country: US operational
LEOCIRCULARRETROGRADE

リアルタイム位置

3D地球を読み込み中...

P71-2について

説明を読み込み中...

次回通過

Passes for default location (London). Set your location on the main map for personalized predictions.

高度履歴

Loading altitude history...

軌道要素

1 05560U 71089A 26107.17101201 .00000283 00000-0 72161-4 0 9994
2 05560 92.7061 164.1908 0013890 321.3466 38.6745 14.50806680867886
Epoch: Apr 17, 2026 • Age: 13 hours

現在のステータス

高度 736.0 km
速度 7.49 km/s
衛星直下点 -57.60°S, 66.53°E
タイプ other

Most Searched